Location: ???????
(55.4362°N, 38.1183°E)
Time: 20:55:07
(UTC+00:00)

M-CUBED/EXP-1 PRIME - Pass Details

Date: 13 December 2021
Orbit: 426 x 650 km, 101.7° (Epoch: 26 January)

Event Time Altitude Azimuth Distance (km) Brightness Sun altitude
Rises 16:17:16 0° 197° (SSW) 2,886 ? -26.7°
Reaches altitude 10° 16:19:51 10° 212° (SSW) 2,013 ? -27.0°
Maximum altitude 16:23:16 22° 264° (W) 1,419 ? -27.5°
Drops below altitude 10° 16:26:46 10° 314° (NW) 2,069 ? -28.0°
Sets 16:29:27 0° 330° (NNW) 2,990 ? -28.4°
